Miscellaneous Local Product
Issued by NWS North Platte, NE

Home | Current Version | Previous Version | Graphics & Text | Print | Product List | Glossary On
Versions: 1 2 3 4 5 6 7 8 9 10 11 12 13 14 15 16 17 18 19 20 21 22 23 24 25 26 27 28 29 30 31 32 33 34 35 36 37 38 39 40 41 42 43 44 45 46 47 48 49 50
000
AXUS43 KLBF 252110
MISLBF


WESTERN AND NORTH CENTRAL NEBRASKA HOURLY WEATHER ROUNDUP
NATIONAL WEATHER SERVICE NORTH PLATTE NE
400 PM CDT MON MAY 25 2015

***STATIONS NOT REPORTING VARIABLES SUCH AS SKY/WEATHER OR
PRESSURE ARE PROVIDED BY THE NEBRASKA DEPARTMENT OF
ROADS...RAWS...AND APRS NETWORKS...AND ARE NOT UNDER
NATIONAL WEATHER SERVICE QUALITY CONTROL***

...OBSERVATIONS IN AND NEAR THE EASTERN PANHANDLE OF NEBRASKA...

CITY           SKY/WX    TMP DP  RH WIND       PRES   REMARKS
PINE RIDGE     CLOUDY    61  49  64 CALM      29.83S
CHADRON        CLOUDY    62  50  64 NE3       29.84S
ALLIANCE       LGT RAIN  54  52  93 N6        29.87R
SIDNEY         LGT RAIN  54  49  83 NW15      29.89S
WHITECLAY        N/A     62  48  61 CALM        N/A
BIG SPRINGS      N/A     59  54  84 W12         N/A
$$

...OBSERVATIONS IN NORTH CENTRAL NEBRASKA...

CITY           SKY/WX    TMP DP  RH WIND       PRES   REMARKS
VALENTINE      RAIN      55  54  96 NW3       29.84R FOG
THEDFORD       CLOUDY    63  54  71 CALM      29.82R
AINSWORTH      RAIN      57  57  98 W12       29.81S
O`NEILL        CLOUDY    71  55  57 S13       29.78R
ORD            MOSUNNY   73  55  53 SW14      29.75F
BROKEN BOW     PTSUNNY   69  59  70 W8        29.78F
BROWNLEE         N/A     60  55  83 W9          N/A
SPRINGVIEW       N/A     59  57  92 CALM        N/A
HALSEY           N/A     65  52  62 NW6         N/A
BREWSTER         N/A     71  56  59 W8          N/A
ROSE             N/A     71  58  64 S13         N/A
NEWPORT          N/A     65  60  83 NW15        N/A
SARGENT          N/A     70  57  62 W8G18       N/A
COMSTOCK         N/A     77  58  51 SW8         N/A
EWING            N/A     75  58  54 SW14G22     N/A
$$

...OBSERVATIONS IN SOUTHWEST NEBRASKA AND FAR NORTHEAST COLORADO...

CITY           SKY/WX    TMP DP  RH WIND       PRES   REMARKS
WRAY           MOCLDY    62  47  57 W15       29.90F
IMPERIAL       LGT RAIN  58  52  80 W10       29.87R
OGALLALA       CLOUDY    60  53  78 SW5       29.83F
NORTH PLATTE   MOSUNNY   68  51  54 W14G20    29.80F
MCCOOK         MOSUNNY   74  49  41 W13G24    29.80F
LEXINGTON      MOSUNNY   73  55  52 W10G17    29.78F
PAXTON           N/A     63  55  74 SW12        N/A
GOTHENBURG       N/A     72  49  43 W7          N/A
CALLAWAY         N/A     66  59  78 W12         N/A
$$

...NORTH PLATTE AREA...

CITY           SKY/WX    TMP DP  RH WIND       PRES   REMARKS
AIRPORT        MOSUNNY   68  51  54 W14G20    29.80F
DOWNTOWN         N/A     68  50  51 W7G16       N/A
$$

...SOME WEATHER OBSERVATIONS FROM AROUND THE REGION...

CITY           SKY/WX    TMP DP  RH WIND       PRES   REMARKS
DENVER         PTSUNNY   65  41  41 E8        29.91S
LARAMIE        CLOUDY    52  38  58 N21G31    29.98R
CHEYENNE       CLOUDY    54  41  61 N14G23    29.94S
SCOTTSBLUFF    CLOUDY    57  53  86 W10       29.89R
RAPID CITY     LGT RAIN  59  53  80 N12       29.86R
PIERRE         CLOUDY    62  54  74 NE14      29.81S
WINNER         CLOUDY    63  55  75 SE9       29.80S
SIOUX FALLS    CLOUDY    70  58  65 W7        29.76S
OMAHA          PTSUNNY   80  60  50 S14       29.78S
GRAND ISLAND   MOSUNNY   73  54  51 S15       29.79F
KANSAS CITY    PTSUNNY   78  66  66 S20G30    29.85F
WICHITA        TSTM      71  64  78 S12       29.81S
HAYS           MOSUNNY   72  55  56 W5        29.80F
LIBERAL        CLOUDY    73  54  49 SW10      29.86S
GOODLAND       PTSUNNY   69  48  47 W15       29.87F
$$



USA.gov is the U.S. government's official web portal to all federal, state and local government web resources and services.